Time,TemperatureF,DewpointF,PressureIn,WindDirection,WindDirectionDegrees,WindSpeedMPH,WindSpeedGustMPH,Humidity,HourlyPrecipIn,Conditions,Clouds,dailyrainin,SolarRadiationWatts/m^2,SoftwareType,DateUTC
2013-05-29 00:11:00,51.0,48.0,-100.00,South,169,0.0,2.0,91,-99.99,,,0.00,0.000000,,2013-05-29 07:11:00,
2013-05-29 01:11:00,50.0,48.0,-100.00,South,171,1.0,3.0,95,-99.99,,,0.00,0.000000,,2013-05-29 08:11:00,
2013-05-29 02:11:00,50.0,49.0,-100.00,East,79,1.0,2.0,95,-99.99,,,0.00,0.000000,,2013-05-29 09:11:00,
2013-05-29 03:12:00,50.0,49.0,-100.00,NNE,12,1.0,2.0,97,-99.99,,,0.01,0.000000,,2013-05-29 10:12:00,
2013-05-29 04:12:00,50.0,49.0,-100.00,South,184,1.0,2.0,98,-99.99,,,0.01,0.000000,,2013-05-29 11:12:00,
2013-05-29 05:11:00,50.0,49.0,-100.00,NNE,12,1.0,2.0,98,-99.99,,,-99.99,0.000000,,2013-05-29 12:11:00,
2013-05-29 06:11:00,50.0,49.0,-100.00,NE,43,0.0,1.0,98,-99.99,,,0.01,0.000000,,2013-05-29 13:11:00,
2013-05-29 07:11:00,50.0,49.0,-100.00,NW,309,1.0,2.0,98,-99.99,,,0.01,24.639999,,2013-05-29 14:11:00,
2013-05-29 08:11:00,50.0,50.0,-100.00,SW,236,0.0,2.0,98,-99.99,,,0.01,36.730000,,2013-05-29 15:11:00,
2013-05-29 09:12:00,51.0,51.0,-100.00,SSE,161,1.0,3.0,98,-99.99,,,0.01,85.190002,,2013-05-29 16:12:00,
2013-05-29 10:12:00,52.0,51.0,-100.00,WNW,301,2.0,4.0,96,-99.99,,,0.01,59.160000,,2013-05-29 17:12:00,
2013-05-29 12:11:00,55.0,53.0,-100.00,NE,35,1.0,4.0,91,-99.99,,,0.02,417.690002,,2013-05-29 19:11:00,
2013-05-29 13:11:00,62.0,49.0,-100.00,West,268,9.0,21.0,63,-99.99,,,0.02,1052.949951,,2013-05-29 20:11:00,
2013-05-29 14:12:00,59.0,49.0,-100.00,WNW,301,6.0,11.0,70,-99.99,,,0.02,377.130005,,2013-05-29 21:12:00,
2013-05-29 15:12:00,60.0,50.0,-100.00,NW,312,6.0,13.0,70,-99.99,,,0.02,351.100006,,2013-05-29 22:12:00,
2013-05-29 16:12:00,59.0,49.0,-100.00,WSW,254,4.0,12.0,69,-99.99,,,0.02,222.330002,,2013-05-29 23:12:00,
2013-05-29 17:11:00,59.0,50.0,-100.00,WNW,288,3.0,7.0,73,-99.99,,,0.02,205.240005,,2013-05-30 00:11:00,
2013-05-29 18:11:00,58.0,48.0,-100.00,SW,229,4.0,7.0,70,-99.99,,,0.02,193.039993,,2013-05-30 01:11:00,
2013-05-29 19:11:00,59.0,47.0,-100.00,SW,233,5.0,10.0,64,-99.99,,,0.02,309.149994,,2013-05-30 02:11:00,
2013-05-29 20:11:00,55.0,50.0,-100.00,SW,236,2.0,4.0,82,-99.99,,,0.02,39.980000,,2013-05-30 03:11:00,
2013-05-29 21:12:00,53.0,49.0,-100.00,NW,316,3.0,9.0,86,-99.99,,,0.02,16.850000,,2013-05-30 04:12:00,
2013-05-29 22:12:00,52.0,49.0,-100.00,WNW,301,3.0,9.0,88,-99.99,,,0.02,0.000000,,2013-05-30 05:12:00,
2013-05-29 23:12:00,51.0,50.0,-100.00,North,357,2.0,4.0,95,-99.99,,,0.02,0.000000,,2013-05-30 06:12:00,